Location: Gadern
(49.5873°N, 8.8138°E)
Time: 17:43:58
(UTC+00:00)

PSLV R/B - Pass Details

Date: 19 May 2025
Orbit: 586 x 683 km, 97.9° (Epoch: 16 June)

Event Time Altitude Azimuth Distance (km) Brightness Sun altitude
Rises 22:40:05 0° 19° (NNE) 2,847 8.0 -19.8°
Reaches altitude 10° 22:42:21 10° 26° (NNE) 1,932 6.9 -19.9°
Maximum altitude 22:46:21 44° 99° (E) 825 4.0 -20.0°
Enters shadow 22:46:55 41° 122° (ESE) 859 3.9 -20.0°
